Simultaneous Nadir Overpasses (SNOs) Predictions

Prediction of SNOs between NOAA-19 and NPP Satellite Orbit:

Table of predicted SNOs for the next 14.0 days since TLE Epoch: 2/26/2017
Index Date (NOAA-19) Time (NOAA-19) Lat,Lon (NOAA-19) SZA (NOAA-19 ) Date (NPP) Time (NPP) Lat,Lon (NPP) SZA (NPP ) Distance(km) Time Diff (sec)
1 03/03/2017 07:00:53 80.89, 23.67 91.31 03/03/2017 07:02:02 80.89, 23.57 91.28 1.84 69
2 03/03/2017 07:51:50 -80.89,-169.32 88.68 03/03/2017 07:52:47 -80.89,-169.18 88.73 2.52 57
3 03/03/2017 08:42:55 80.89, -1.94 91.29 03/03/2017 08:43:32 80.89, -1.86 91.26 1.39 37
4 03/03/2017 09:33:51 -80.89, 165.44 88.74 03/03/2017 09:34:17 -80.89, 165.39 88.75 0.87 26
5 03/03/2017 10:24:56 80.89, -27.18 91.23 03/03/2017 10:25:02 80.89, -27.29 91.24 1.98 6
6 03/03/2017
